Stündliche Wetter Labuchy

Heute, 8 Mai, Samstag

Zeit Temperatur Niederschläge Wind Luftdruck Luftfeuchtigkeit
00:00 +1°C° 0 mm 3 m/S 743 mmHg 93%
01:00 0°C° 0 mm 3 m/S 743 mmHg 96%
02:00 +1°C° 0 mm 3 m/S 743 mmHg 96%
03:00 +1°C° 0 mm 3 m/S 744 mmHg 95%
04:00 +1°C° 0 mm 3 m/S 744 mmHg 95%
05:00 +1°C° 0 mm 3 m/S 744 mmHg 91%
06:00 +2°C° 0 mm 3 m/S 745 mmHg 87%
07:00 +3°C° 0 mm 3 m/S 745 mmHg 83%
08:00 +4°C° 0 mm 3 m/S 746 mmHg 76%
09:00 +5°C° 0 mm 3 m/S 746 mmHg 69%
10:00 +7°C° 0 mm 3 m/S 746 mmHg 63%
11:00 +7°C° 0.3 mm 4 m/S 746 mmHg 65%
12:00 +7°C° 0.3 mm 4 m/S 746 mmHg 68%
13:00 +7°C° 0.3 mm 5 m/S 747 mmHg 70%
14:00 +7°C° 0.6 mm 5 m/S 747 mmHg 73%
15:00 +7°C° 0.6 mm 5 m/S 747 mmHg 75%
16:00 +7°C° 0.6 mm 5 m/S 747 mmHg 78%
17:00 +6°C° 0.2 mm 4 m/S 747 mmHg 82%
18:00 +5°C° 0.2 mm 3 m/S 748 mmHg 86%
19:00 +4°C° 0.2 mm 2 m/S 748 mmHg 90%
20:00 +4°C° 0 mm 2 m/S 748 mmHg 90%
21:00 +4°C° 0 mm 1 m/S 749 mmHg 91%
22:00 +3°C° 0 mm 1 m/S 749 mmHg 91%
23:00 +3°C° 0 mm 1 m/S 749 mmHg 91%

Morgen, 9 Mai, Sonntag

Zeit Temperatur Niederschläge Wind Luftdruck Luftfeuchtigkeit
00:00 +2°C° 0 mm 2 m/S 749 mmHg 91%
01:00 +1°C° 0 mm 2 m/S 749 mmHg 91%
02:00 +1°C° 0 mm 2 m/S 749 mmHg 91%
03:00 +1°C° 0 mm 2 m/S 749 mmHg 91%
04:00 0°C° 0 mm 3 m/S 749 mmHg 90%
05:00 +2°C° 0 mm 3 m/S 749 mmHg 86%
06:00 +4°C° 0 mm 4 m/S 749 mmHg 81%
07:00 +6°C° 0 mm 5 m/S 749 mmHg 77%
08:00 +8°C° 0 mm 5 m/S 749 mmHg 69%
09:00 +9°C° 0 mm 5 m/S 749 mmHg 62%
10:00 +11°C° 0 mm 6 m/S 749 mmHg 54%
11:00 +11°C° 0 mm 6 m/S 749 mmHg 59%
12:00 +10°C° 0 mm 6 m/S 749 mmHg 63%
13:00 +10°C° 0 mm 5 m/S 748 mmHg 68%
14:00 +11°C° 0 mm 6 m/S 748 mmHg 67%
15:00 +13°C° 0 mm 6 m/S 748 mmHg 66%
16:00 +14°C° 0 mm 6 m/S 748 mmHg 66%
17:00 +13°C° 0 mm 5 m/S 748 mmHg 71%
18:00 +12°C° 0 mm 5 m/S 748 mmHg 76%
19:00 +11°C° 0 mm 4 m/S 747 mmHg 81%
20:00 +11°C° 0 mm 4 m/S 748 mmHg 82%
21:00 +10°C° 0 mm 4 m/S 748 mmHg 83%
22:00 +9°C° 0 mm 5 m/S 748 mmHg 85%
23:00 +8°C° 0 mm 4 m/S 748 mmHg 86%

übermorgen, 10 Mai, Montag

Zeit Temperatur Niederschläge Wind Luftdruck Luftfeuchtigkeit
00:00 +8°C° 0 mm 4 m/S 748 mmHg 87%
01:00 +7°C° 0 mm 4 m/S 748 mmHg 88%
02:00 +7°C° 0 mm 4 m/S 748 mmHg 89%
03:00 +7°C° 0 mm 4 m/S 748 mmHg 90%
04:00 +7°C° 0 mm 4 m/S 748 mmHg 90%
05:00 +8°C° 0 mm 5 m/S 748 mmHg 86%
06:00 +10°C° 0 mm 5 m/S 748 mmHg 81%
07:00 +11°C° 0 mm 6 m/S 748 mmHg 76%
08:00 +14°C° 0 mm 6 m/S 748 mmHg 70%
09:00 +15°C° 0 mm 7 m/S 748 mmHg 64%
10:00 +17°C° 0 mm 7 m/S 748 mmHg 59%
11:00 +18°C° 0 mm 7 m/S 748 mmHg 58%
12:00 +20°C° 0 mm 7 m/S 747 mmHg 57%
13:00 +21°C° 0 mm 8 m/S 747 mmHg 57%
14:00 +21°C° 0 mm 8 m/S 747 mmHg 59%
15:00 +20°C° 0 mm 8 m/S 747 mmHg 61%
16:00 +20°C° 0 mm 8 m/S 747 mmHg 63%
17:00 +18°C° 0 mm 7 m/S 747 mmHg 67%
18:00 +17°C° 0 mm 7 m/S 747 mmHg 71%
19:00 +16°C° 0 mm 6 m/S 747 mmHg 75%
20:00 +15°C° 0 mm 6 m/S 747 mmHg 77%
21:00 +15°C° 0 mm 6 m/S 747 mmHg 78%
22:00 +14°C° 0 mm 6 m/S 747 mmHg 80%
23:00 +13°C° 0 mm 6 m/S 747 mmHg 83%

11 Mai, Dienstag

Zeit Temperatur Niederschläge Wind Luftdruck Luftfeuchtigkeit
00:00 +13°C° 0 mm 6 m/S 747 mmHg 85%
01:00 +12°C° 0 mm 5 m/S 747 mmHg 87%
02:00 +10°C° 0 mm 5 m/S 747 mmHg 88%
03:00 +10°C° 0 mm 5 m/S 747 mmHg 89%
04:00 +9°C° 0 mm 5 m/S 747 mmHg 90%
05:00 +10°C° 0 mm 6 m/S 747 mmHg 85%
06:00 +13°C° 0 mm 6 m/S 746 mmHg 81%
07:00 +14°C° 0 mm 7 m/S 746 mmHg 77%
08:00 +15°C° 0 mm 7 m/S 746 mmHg 73%
09:00 +17°C° 0 mm 7 m/S 746 mmHg 68%
10:00 +20°C° 0 mm 8 m/S 746 mmHg 64%
11:00 +20°C° 0 mm 8 m/S 746 mmHg 63%
12:00 +21°C° 0 mm 8 m/S 746 mmHg 62%
13:00 +22°C° 0 mm 8 m/S 745 mmHg 62%
14:00 +22°C° 0 mm 8 m/S 745 mmHg 63%
15:00 +21°C° 0 mm 8 m/S 745 mmHg 64%
16:00 +21°C° 0 mm 8 m/S 745 mmHg 66%
17:00 +20°C° 0 mm 8 m/S 745 mmHg 68%
18:00 +18°C° 0 mm 8 m/S 745 mmHg 69%
19:00 +16°C° 0 mm 7 m/S 745 mmHg 71%
20:00 +16°C° 0 mm 7 m/S 745 mmHg 69%
21:00 +15°C° 0 mm 7 m/S 745 mmHg 68%
22:00 +14°C° 0 mm 7 m/S 746 mmHg 66%
23:00 +12°C° 0 mm 7 m/S 745 mmHg 66%

12 Mai, Mittwoch

Zeit Temperatur Niederschläge Wind Luftdruck Luftfeuchtigkeit
00:00 +13°C° 0 mm 6 m/S 745 mmHg 66%
01:00 +11°C° 0 mm 6 m/S 745 mmHg 66%
02:00 +10°C° 0 mm 6 m/S 745 mmHg 69%
03:00 +10°C° 0 mm 6 m/S 745 mmHg 71%
04:00 +9°C° 0 mm 6 m/S 745 mmHg 73%
05:00 +10°C° 0 mm 6 m/S 745 mmHg 73%
06:00 +13°C° 0 mm 6 m/S 745 mmHg 73%
07:00 +14°C° 0 mm 7 m/S 745 mmHg 73%
08:00 +15°C° 0 mm 7 m/S 745 mmHg 70%
09:00 +17°C° 0 mm 7 m/S 745 mmHg 66%
10:00 +20°C° 0 mm 8 m/S 745 mmHg 63%
11:00 +20°C° 0 mm 7 m/S 744 mmHg 61%
12:00 +21°C° 0 mm 7 m/S 744 mmHg 58%
13:00 +22°C° 0 mm 7 m/S 744 mmHg 56%
14:00 +21°C° 0 mm 7 m/S 744 mmHg 58%
15:00 +21°C° 0 mm 6 m/S 744 mmHg 60%
16:00 +20°C° 0 mm 6 m/S 744 mmHg 62%
17:00 +19°C° 0 mm 6 m/S 744 mmHg 68%
18:00 +17°C° 0 mm 5 m/S 744 mmHg 74%
19:00 +15°C° 0 mm 5 m/S 744 mmHg 80%
20:00 +14°C° 0 mm 5 m/S 744 mmHg 82%
21:00 +12°C° 0 mm 5 m/S 744 mmHg 84%
22:00 +10°C° 0 mm 5 m/S 745 mmHg 86%
23:00 +10°C° 0 mm 4 m/S 745 mmHg 87%

13 Mai, Donnerstag

Zeit Temperatur Niederschläge Wind Luftdruck Luftfeuchtigkeit
00:00 +8°C° 0 mm 4 m/S 744 mmHg 89%
01:00 +8°C° 0 mm 3 m/S 744 mmHg 91%
02:00 +8°C° 0 mm 3 m/S 744 mmHg 93%
03:00 +7°C° 0 mm 3 m/S 744 mmHg 95%
04:00 +7°C° 0 mm 3 m/S 744 mmHg 96%
05:00 +7°C° 0 mm 4 m/S 744 mmHg 89%
06:00 +9°C° 0 mm 5 m/S 744 mmHg 81%
07:00 +10°C° 0 mm 5 m/S 744 mmHg 74%
08:00 +12°C° 0 mm 5 m/S 743 mmHg 69%
09:00 +13°C° 0 mm 5 m/S 743 mmHg 64%
10:00 +14°C° 0 mm 5 m/S 743 mmHg 59%
11:00 +14°C° 0 mm 4 m/S 743 mmHg 61%
12:00 +14°C° 0 mm 3 m/S 742 mmHg 63%
13:00 +14°C° 0 mm 3 m/S 742 mmHg 64%
14:00 +15°C° 0.1 mm 2 m/S 741 mmHg 69%
15:00 +14°C° 0.1 mm 2 m/S 741 mmHg 74%
16:00 +14°C° 0.1 mm 2 m/S 741 mmHg 79%
17:00 +13°C° 1.1 mm 2 m/S 740 mmHg 85%
18:00 +12°C° 1.1 mm 2 m/S 740 mmHg 90%
19:00 +10°C° 1.1 mm 2 m/S 740 mmHg 95%
20:00 +10°C° 1.3 mm 2 m/S 740 mmHg 96%
21:00 +10°C° 1.3 mm 2 m/S 739 mmHg 97%
22:00 +10°C° 1.3 mm 1 m/S 739 mmHg 98%
23:00 +10°C° 1 mm 1 m/S 739 mmHg 98%
Mehr zeigen

Wir brauchen deine Erlaubnis

Meteoprog und unser Service Anbieter werden persönliche Daten aufbewahren, so wie Cookies, Geräte Bezeichnung oder ähnliche Technologien von deinem Gerät und Prozess, so wie Persönliche Daten Inhalte und Werbungen, genauso wie social Media und den Verkehr zu analysieren.

  • Aufbewahrung und/oder Zugang zu deiner Geräte Informationen.

    Cookies, Geräte Bezeichnung oder andere Informationen, können aufbewahrt oder Zugang zu deinem Gerät erhalten, für den Grund, der oben angegeben wird.

  • Personalisierte Werbung und Inhalte, Messungen, Einblick in das Publikum und Produkt Entwicklung.

    Werbungen und Inhalte können personalisiert werden, basierend auf ein Profil. Mehr Daten können besser personalisierte Werbungen und Inhalte hinzufügen. Werbung und Inhalte können gezeigt und gemessen werden. Einblicke über das Publikum, welche die Werbung gesehen haben und den Inhalt, können abgeleitet werden. So wie Daten können genutzt werden, um es zu verbessern oder die Benutzer Erfahrung zu verbessern das System und die Software.

Wenn du “Ich stimme zu” klickst, erlaubst du uns, die Cookies zu benutzen die Geräte Bezeichnung, den Web oder ähnliche Technologien zu benutzen. Deine Settings, können in deinem Gerät bei deinem Browser geändert werden.

Für den bestimmten Zweck, berechtigten Interessen beruhen darauf, mehr als auf den Inhalt. Du kannst mehr darüber in unseren Privaten und Cookie Politik lesen.